This is the latest recevied weather packets stored in our database for station/object KG5EO. If no packets are shown the sender has not sent any weather packets the latest 10 day(s).
| Time | Temp. | Humidity | Pressure | Rain* | Wind** | Luminosity | Snow |
|---|---|---|---|---|---|---|---|
| 1777544176 | 19.44° C | 32% | 40.9 hPa | 0 mm | - | - | - |
| 1777543876 | 19.44° C | 31% | 40.9 hPa | 0 mm | - | - | - |
| 1777543576 | 18.89° C | 31% | 40.9 hPa | 0 mm | - | - | - |
| 1777543276 | 19.44° C | 32% | 40.9 hPa | 0 mm | - | - | - |
| 1777542976 | 19.44° C | 32% | 40.9 hPa | 0 mm | - | - | - |
| 1777542676 | 19.44° C | 32% | 40.9 hPa | 0 mm | - | - | - |
| 1777542375 | 19.44° C | 29% | 40.9 hPa | 0 mm | - | - | - |
| 1777542075 | 19.44° C | 30% | 40.9 hPa | 0 mm | - | - | - |
| 1777541775 | 19.44° C | 34% | 40.9 hPa | 0 mm | - | - | - |
| 1777541475 | 19.44° C | 29% | 40.9 hPa | 0 mm | - | - | - |
| 1777541176 | 19.44° C | 29% | 40.9 hPa | 0 mm | - | - | - |
| 1777540875 | 19.44° C | 29% | 40.9 hPa | 0 mm | - | - | - |
| 1777540574 | 19.44° C | 30% | 40.9 hPa | 0 mm | - | - | - |
| 1777540274 | 20° C | 34% | 40.9 hPa | 0 mm | - | - | - |
| 1777539974 | 20° C | 33% | 40.9 hPa | 0 mm | - | - | - |
| 1777539674 | 20.56° C | 29% | 40.9 hPa | 0 mm | - | - | - |
| 1777539374 | 21.11° C | 25% | 40.9 hPa | 0 mm | - | - | - |
| 1777539075 | 21.67° C | 26% | 40.9 hPa | 0 mm | - | - | - |
| 1777538775 | 22.22° C | 26% | 40.9 hPa | 0 mm | - | - | - |
| 1777538473 | 22.78° C | 21% | 40.9 hPa | 0 mm | - | - | - |
| 1777538173 | 22.78° C | 20% | 40.9 hPa | 0 mm | - | - | - |
| 1777537873 | 23.33° C | 19% | 40.9 hPa | 0 mm | - | - | - |
| 1777537573 | 22.78° C | 20% | 40.9 hPa | 0 mm | - | - | - |
| 1777537273 | 22.78° C | 21% | 40.9 hPa | 0 mm | - | - | - |
| 1777536972 | 22.78° C | 21% | 40.9 hPa | 0 mm | - | - | - |
* Rain latest hour (hover to see other rain measurements)
** Current wind speed in m/s (hover to see current wind gust speed)